Time,TemperatureF,DewpointF,PressureIn,WindDirection,WindDirectionDegrees,WindSpeedMPH,WindSpeedGustMPH,Humidity,HourlyPrecipIn,Conditions,Clouds,dailyrainin,SolarRadiationWatts/m^2,SoftwareType,DateUTC
2013-05-17 00:02:00,70.0,13.0,-100.00,NNE,30,0.0,7.0,11,0.00,,,0.00,0.000000,,2013-05-17 06:02:00,
2013-05-17 00:11:00,70.0,13.0,-100.00,NNE,30,0.0,7.0,11,0.00,,,0.00,0.000000,,2013-05-17 06:11:00,
2013-05-17 00:21:00,70.0,13.0,-100.00,NNE,30,0.0,7.0,11,0.00,,,0.00,0.000000,,2013-05-17 06:21:00,
2013-05-17 00:52:00,71.0,14.0,-100.00,North,359,2.0,4.0,11,0.00,,,0.00,0.000000,,2013-05-17 06:52:00,
2013-05-17 01:02:00,71.0,14.0,-100.00,North,359,2.0,4.0,11,0.00,,,0.00,0.000000,,2013-05-17 07:02:00,
2013-05-17 01:11:00,71.0,14.0,-100.00,North,359,2.0,4.0,11,0.00,,,0.00,0.000000,,2013-05-17 07:11:00,
2013-05-17 01:21:00,71.0,14.0,-100.00,North,359,2.0,4.0,11,0.00,,,0.00,0.000000,,2013-05-17 07:21:00,
2013-05-17 01:53:00,70.0,13.0,-100.00,NNE,21,0.0,6.0,11,0.00,,,0.00,0.000000,,2013-05-17 07:53:00,
2013-05-17 02:02:00,70.0,13.0,-100.00,NNE,21,0.0,6.0,11,0.00,,,0.00,0.000000,,2013-05-17 08:02:00,
2013-05-17 02:12:00,70.0,13.0,-100.00,NNE,21,0.0,6.0,11,0.00,,,0.00,0.000000,,2013-05-17 08:12:00,
2013-05-17 02:23:00,70.0,13.0,-100.00,NNE,21,0.0,6.0,11,0.00,,,0.00,0.000000,,2013-05-17 08:23:00,
2013-05-17 02:52:00,67.0,13.0,-100.00,NNE,23,1.0,4.0,12,0.00,,,0.00,0.000000,,2013-05-17 08:52:00,
2013-05-17 03:02:00,67.0,13.0,-100.00,NNE,23,1.0,4.0,12,0.00,,,0.00,0.000000,,2013-05-17 09:02:00,
2013-05-17 03:12:00,67.0,13.0,-100.00,NNE,23,1.0,4.0,12,0.00,,,0.00,0.000000,,2013-05-17 09:12:00,
2013-05-17 03:22:00,67.0,13.0,-100.00,NNE,23,1.0,4.0,12,0.00,,,0.00,0.000000,,2013-05-17 09:22:00,
2013-05-17 03:53:00,67.0,15.0,-100.00,East,81,0.0,8.0,13,0.00,,,0.00,0.000000,,2013-05-17 09:53:00,
2013-05-17 04:03:00,67.0,15.0,-100.00,East,81,0.0,8.0,13,0.00,,,0.00,0.000000,,2013-05-17 10:03:00,
2013-05-17 04:12:00,67.0,15.0,-100.00,East,81,0.0,8.0,13,0.00,,,0.00,0.000000,,2013-05-17 10:12:00,
2013-05-17 04:23:00,67.0,15.0,-100.00,East,81,0.0,8.0,13,0.00,,,0.00,0.000000,,2013-05-17 10:23:00,
2013-05-17 04:54:00,67.0,16.0,-100.00,ENE,65,0.0,8.0,14,0.00,,,0.00,0.000000,,2013-05-17 10:54:00,
2013-05-17 05:02:00,67.0,16.0,-100.00,ENE,65,0.0,8.0,14,0.00,,,0.00,0.000000,,2013-05-17 11:02:00,
2013-05-17 05:12:00,67.0,16.0,-100.00,ENE,65,0.0,8.0,14,0.00,,,0.00,0.000000,,2013-05-17 11:12:00,
2013-05-17 05:23:00,67.0,16.0,-100.00,ENE,65,0.0,8.0,14,0.00,,,0.00,0.000000,,2013-05-17 11:23:00,
2013-05-17 05:53:00,66.0,15.0,-100.00,NNE,33,0.0,6.0,14,0.00,,,0.00,0.000000,,2013-05-17 11:53:00,
2013-05-17 06:03:00,66.0,15.0,-100.00,NNE,33,0.0,6.0,14,0.00,,,0.00,0.000000,,2013-05-17 12:03:00,
2013-05-17 06:12:00,66.0,15.0,-100.00,NNE,33,0.0,6.0,14,0.00,,,0.00,0.000000,,2013-05-17 12:12:00,
2013-05-17 06:23:00,66.0,15.0,-100.00,NNE,33,0.0,6.0,14,0.00,,,0.00,0.000000,,2013-05-17 12:23:00,
2013-05-17 06:53:00,63.0,15.0,-100.00,East,85,4.0,6.0,15,0.00,,,0.00,2.000000,,2013-05-17 12:53:00,
2013-05-17 07:03:00,63.0,15.0,-100.00,East,85,4.0,6.0,15,0.00,,,0.00,2.000000,,2013-05-17 13:03:00,
2013-05-17 07:12:00,63.0,15.0,-100.00,East,85,4.0,6.0,15,0.00,,,0.00,2.000000,,2013-05-17 13:12:00,
2013-05-17 07:23:00,63.0,15.0,-100.00,East,85,4.0,6.0,15,0.00,,,0.00,2.000000,,2013-05-17 13:23:00,
2013-05-17 07:52:00,69.0,16.0,-100.00,NNW,339,0.0,7.0,13,0.00,,,0.00,38.000000,,2013-05-17 13:52:00,
2013-05-17 08:02:00,69.0,16.0,-100.00,NNW,339,0.0,7.0,13,0.00,,,0.00,38.000000,,2013-05-17 14:02:00,
2013-05-17 08:13:00,69.0,16.0,-100.00,NNW,339,0.0,7.0,13,0.00,,,0.00,38.000000,,2013-05-17 14:13:00,
2013-05-17 08:22:00,69.0,16.0,-100.00,NNW,339,0.0,7.0,13,0.00,,,0.00,38.000000,,2013-05-17 14:22:00,
2013-05-17 08:53:00,73.0,15.0,-100.00,NW,311,7.0,12.0,11,0.00,,,0.00,385.000000,,2013-05-17 14:53:00,
2013-05-17 09:03:00,73.0,15.0,-100.00,NW,311,7.0,12.0,11,0.00,,,0.00,385.000000,,2013-05-17 15:03:00,
2013-05-17 09:14:00,73.0,15.0,-100.00,NW,311,7.0,12.0,11,0.00,,,0.00,385.000000,,2013-05-17 15:14:00,
2013-05-17 09:25:00,73.0,15.0,-100.00,NW,311,7.0,12.0,11,0.00,,,0.00,385.000000,,2013-05-17 15:25:00,
2013-05-17 09:26:00,77.0,16.0,-100.00,WNW,299,9.0,14.0,10,0.00,,,0.00,658.000000,,2013-05-17 15:26:00,
2013-05-17 09:57:00,77.0,16.0,-100.00,WNW,299,9.0,14.0,10,0.00,,,0.00,658.000000,,2013-05-17 15:57:00,
2013-05-17 10:07:00,77.0,16.0,-100.00,WNW,299,9.0,14.0,10,0.00,,,0.00,658.000000,,2013-05-17 16:07:00,
2013-05-17 10:13:00,77.0,16.0,-100.00,WNW,299,9.0,14.0,10,0.00,,,0.00,658.000000,,2013-05-17 16:13:00,
2013-05-17 10:26:00,79.0,15.0,-100.00,NW,310,5.0,14.0,9,0.00,,,0.00,901.000000,,2013-05-17 16:26:00,
2013-05-17 10:56:00,79.0,15.0,-100.00,NW,310,5.0,14.0,9,0.00,,,0.00,901.000000,,2013-05-17 16:56:00,
2013-05-17 11:08:00,79.0,15.0,-100.00,NW,310,5.0,14.0,9,0.00,,,0.00,901.000000,,2013-05-17 17:08:00,
2013-05-17 11:19:00,79.0,15.0,-100.00,NW,310,5.0,14.0,9,0.00,,,0.00,901.000000,,2013-05-17 17:19:00,
2013-05-17 11:26:00,80.0,16.0,-100.00,WNW,291,6.0,13.0,9,0.00,,,0.00,1096.000000,,2013-05-17 17:26:00,
2013-05-17 12:00:00,80.0,-99.9,-100.00,WNW,291,6.0,13.0,9,0.00,,,0.00,1096.000000,,2013-05-17 18:00:00,
2013-05-17 12:09:00,80.0,16.0,-100.00,WNW,291,6.0,13.0,9,0.00,,,0.00,1096.000000,,2013-05-17 18:09:00,
2013-05-17 12:20:00,80.0,16.0,-100.00,WNW,291,6.0,13.0,9,0.00,,,0.00,1096.000000,,2013-05-17 18:20:00,
2013-05-17 12:26:00,84.0,16.0,-100.00,WSW,253,8.0,14.0,8,0.00,,,0.00,1220.000000,,2013-05-17 18:26:00,
2013-05-17 13:00:00,84.0,-99.9,-100.00,WSW,253,8.0,14.0,8,0.00,,,0.00,1220.000000,,2013-05-17 19:00:00,
2013-05-17 13:10:00,84.0,16.0,-100.00,WSW,253,8.0,14.0,8,0.00,,,0.00,1220.000000,,2013-05-17 19:10:00,
2013-05-17 13:20:00,84.0,16.0,-100.00,WSW,253,8.0,14.0,8,0.00,,,0.00,1220.000000,,2013-05-17 19:20:00,
2013-05-17 13:26:00,84.0,16.0,-100.00,WSW,237,11.0,20.0,8,0.00,,,0.00,1261.000000,,2013-05-17 19:26:00,
2013-05-17 14:01:00,-999.0,-99.9,-100.00,WSW,237,11.0,20.0,8,0.00,,,0.00,1261.000000,,2013-05-17 20:01:00,
2013-05-17 14:09:00,84.0,16.0,-100.00,WSW,237,11.0,20.0,8,0.00,,,0.00,1261.000000,,2013-05-17 20:09:00,
2013-05-17 14:20:00,84.0,16.0,-100.00,WSW,237,11.0,20.0,8,0.00,,,0.00,1261.000000,,2013-05-17 20:20:00,
2013-05-17 14:26:00,85.0,14.0,-100.00,WSW,252,9.0,20.0,7,0.00,,,0.00,1232.000000,,2013-05-17 20:26:00,
2013-05-17 14:58:00,85.0,14.0,-100.00,WSW,252,9.0,20.0,7,0.00,,,0.00,1232.000000,,2013-05-17 20:58:00,
2013-05-17 15:07:00,85.0,14.0,-100.00,WSW,252,9.0,20.0,7,0.00,,,0.00,1232.000000,,2013-05-17 21:07:00,
2013-05-17 15:17:00,85.0,14.0,-100.00,WSW,252,9.0,20.0,7,0.00,,,0.00,1232.000000,,2013-05-17 21:17:00,
2013-05-17 15:26:00,86.0,15.0,-100.00,SW,221,9.0,23.0,7,0.00,,,0.00,1125.000000,,2013-05-17 21:26:00,
2013-05-17 15:58:00,86.0,15.0,-100.00,SW,221,9.0,23.0,7,0.00,,,0.00,1125.000000,,2013-05-17 21:58:00,
2013-05-17 16:07:00,86.0,15.0,-100.00,SW,221,9.0,23.0,7,0.00,,,0.00,1125.000000,,2013-05-17 22:07:00,
2013-05-17 16:17:00,86.0,15.0,-100.00,SW,221,9.0,23.0,7,0.00,,,0.00,1125.000000,,2013-05-17 22:17:00,
2013-05-17 16:55:00,85.0,17.0,-100.00,WSW,254,9.0,26.0,8,0.00,,,0.00,949.000000,,2013-05-17 22:55:00,
2013-05-17 17:04:00,85.0,17.0,-100.00,WSW,254,9.0,26.0,8,0.00,,,0.00,949.000000,,2013-05-17 23:04:00,
2013-05-17 17:13:00,85.0,17.0,-100.00,WSW,254,9.0,26.0,8,0.00,,,0.00,949.000000,,2013-05-17 23:13:00,
2013-05-17 17:23:00,85.0,17.0,-100.00,WSW,254,9.0,26.0,8,0.00,,,0.00,949.000000,,2013-05-17 23:23:00,
2013-05-17 17:54:00,84.0,16.0,-100.00,SW,224,15.0,23.0,8,0.00,,,0.00,747.000000,,2013-05-17 23:54:00,
2013-05-17 18:02:00,84.0,16.0,-100.00,SW,224,15.0,23.0,8,0.00,,,0.00,747.000000,,2013-05-18 00:02:00,
2013-05-17 18:14:00,84.0,16.0,-100.00,SW,224,15.0,23.0,8,0.00,,,0.00,747.000000,,2013-05-18 00:14:00,
2013-05-17 18:22:00,84.0,16.0,-100.00,SW,224,15.0,23.0,8,0.00,,,0.00,747.000000,,2013-05-18 00:22:00,
2013-05-17 18:54:00,82.0,18.0,-100.00,WSW,237,11.0,27.0,9,0.00,,,0.00,473.000000,,2013-05-18 00:54:00,
2013-05-17 19:03:00,82.0,18.0,-100.00,WSW,237,11.0,27.0,9,0.00,,,0.00,473.000000,,2013-05-18 01:03:00,
2013-05-17 19:13:00,82.0,18.0,-100.00,WSW,237,11.0,27.0,9,0.00,,,0.00,473.000000,,2013-05-18 01:13:00,
2013-05-17 19:24:00,82.0,18.0,-100.00,WSW,237,11.0,27.0,9,0.00,,,0.00,473.000000,,2013-05-18 01:24:00,
2013-05-17 19:52:00,79.0,20.0,-100.00,SW,225,11.0,23.0,11,0.00,,,0.00,166.000000,,2013-05-18 01:52:00,
2013-05-17 20:02:00,79.0,20.0,-100.00,SW,225,11.0,23.0,11,0.00,,,0.00,166.000000,,2013-05-18 02:02:00,
2013-05-17 20:12:00,79.0,20.0,-100.00,SW,225,11.0,23.0,11,0.00,,,0.00,166.000000,,2013-05-18 02:12:00,
2013-05-17 20:22:00,79.0,20.0,-100.00,SW,225,11.0,23.0,11,0.00,,,0.00,166.000000,,2013-05-18 02:22:00,
2013-05-17 20:54:00,74.0,22.0,-100.00,WSW,245,3.0,18.0,14,0.00,,,0.00,10.000000,,2013-05-18 02:54:00,
2013-05-17 21:03:00,74.0,22.0,-100.00,WSW,245,3.0,18.0,14,0.00,,,0.00,10.000000,,2013-05-18 03:03:00,
2013-05-17 21:12:00,74.0,22.0,-100.00,WSW,245,3.0,18.0,14,0.00,,,0.00,10.000000,,2013-05-18 03:12:00,
2013-05-17 21:22:00,74.0,22.0,-100.00,WSW,245,3.0,18.0,14,0.00,,,0.00,10.000000,,2013-05-18 03:22:00,
2013-05-17 21:53:00,72.0,22.0,-100.00,WSW,253,0.0,8.0,15,0.00,,,0.00,0.000000,,2013-05-18 03:53:00,
2013-05-17 22:03:00,72.0,22.0,-100.00,WSW,253,0.0,8.0,15,0.00,,,0.00,0.000000,,2013-05-18 04:03:00,
2013-05-17 22:12:00,72.0,22.0,-100.00,WSW,253,0.0,8.0,15,0.00,,,0.00,0.000000,,2013-05-18 04:12:00,
2013-05-17 22:23:00,72.0,22.0,-100.00,WSW,253,0.0,8.0,15,0.00,,,0.00,0.000000,,2013-05-18 04:23:00,
2013-05-17 22:52:00,70.0,19.0,-100.00,ESE,118,0.0,14.0,14,0.00,,,0.00,0.000000,,2013-05-18 04:52:00,
2013-05-17 23:02:00,70.0,19.0,-100.00,ESE,118,0.0,14.0,14,0.00,,,0.00,0.000000,,2013-05-18 05:02:00,
2013-05-17 23:12:00,70.0,19.0,-100.00,ESE,118,0.0,14.0,14,0.00,,,0.00,0.000000,,2013-05-18 05:12:00,
2013-05-17 23:22:00,70.0,19.0,-100.00,ESE,118,0.0,14.0,14,0.00,,,0.00,0.000000,,2013-05-18 05:22:00,
2013-05-17 23:52:00,69.0,5.0,-100.00,NE,53,0.0,10.0,8,0.00,,,0.00,0.000000,,2013-05-18 05:52:00,